Zurück zum Katalog

COSMOS 2602

AktivMilitärPO
NORAD 67676·PAYLOAD·🇷🇺 Russia

Gestartet Feb 5, 2026 von Plesetsk Cosmodrome

Loading…

Nächste Überflüge (nächste 24 Stunden)

TLE

AktuellSource: Space-Track

Epoche: Sep 13, 2026, 17:04 UTC

1 67676U 26023C   26256.71123598  .00005111  00000-0  19921-3 0  9995
2 67676  96.6188 308.2552 0017266 164.6059 195.5711 15.26186003 33502

Verfolge COSMOS 2602 in Echtzeit mit AllMySat

Download on the App Store